Weather History for KNBT - March, 2013

Change the Weather History Date:

Friday, March 1, 2013

  Actual Average (KMRH) Record (KMRH)
Temperature  
Mean Temperature 46 °F -  
Max Temperature 52 °F 59 °F 75 °F (1976)
Min Temperature 41 °F 39 °F 24 °F (1993)
Degree Days  
Heating Degree Days 18    
Moisture  
Dew Point 32 °F    
Average Humidity 57    
Maximum Humidity 66    
Minimum Humidity 45    
Precipitation  
Precipitation 0.00 in - - ()
Sea Level Pressure  
Sea Level Pressure 29.86 in    
Wind  
Wind Speed 11 mph (NNW)    
Max Wind Speed 15 mph    
Max Gust Speed 22 mph    
Visibility 10 miles    
Events      
Averages and records for this station are not official NWS values.
T = Trace of Precipitation, MM = Missing Value Source: NWS Daily Summary

Daily Weather History Graph

Daily Weather History Graph

Search for Another Location

Airport or City:

Trip Planner

Search our weather history database for the weather conditions in past years. The results will help you decide how hot, cold, wet, or windy it might be!

Date:

Astronomy

Mar. 01, 2013 Rise Set
Actual Time 6:34 AM EST 6:01 PM EST
Civil Twilight 6:09 AM EST 6:27 PM EST
Nautical Twilight 5:40 AM EST 6:56 PM EST
Astronomical Twilight 5:10 AM EST 7:25 PM EST
Moon 10:20 PM EST (3/1) 8:31 AM EST (3/1)
Length of Visible Light 12h 17m
Length of Day
11h 26m
Waning Gibbous, 83% of the Moon is Illuminated
Mar 1
Waning Gibbous
Mar 4
Last Quarter
Mar 11
New
Mar 19
First Quarter
Mar 27
Full

Hourly Weather History & Observations

Time (EST) Temp. Windchill Dew Point Humidity Pressure Visibility Wind Dir Wind Speed Gust Speed Precip Events Conditions
12:56 AM 44.1 °F 38.1 °F 30.0 °F 58% 29.84 in 10.0 mi NW 11.5 mph - N/A   Clear
1:56 AM 44.1 °F 37.1 °F 30.0 °F 58% 29.84 in 10.0 mi NW 15.0 mph - N/A   Clear
2:56 AM 43.0 °F 36.4 °F 28.9 °F 58% 29.83 in 10.0 mi WNW 12.7 mph 21.9 mph N/A   Clear
3:56 AM 42.1 °F 35.2 °F 30.0 °F 62% 29.83 in - WNW 12.7 mph - N/A   Clear
4:56 AM 42.1 °F 35.2 °F 30.0 °F 62% 29.85 in - WNW 12.7 mph 19.6 mph N/A   Clear
5:56 AM 41.0 °F 34.7 °F 30.0 °F 65% 29.86 in - WNW 10.4 mph - N/A   Clear
6:56 AM 41.0 °F 33.9 °F 30.0 °F 65% 29.87 in - WNW 12.7 mph - N/A   Clear
7:56 AM 43.0 °F 36.4 °F 30.9 °F 62% 29.88 in - NW 12.7 mph 19.6 mph N/A   Clear
8:56 AM 44.1 °F 37.7 °F 30.9 °F 60% 29.88 in - NW 12.7 mph - N/A   Clear
9:56 AM 46.9 °F - 33.1 °F 59% 29.87 in - NNW 11.5 mph - N/A   Clear
10:56 AM - - - N/A% - - North - - N/A   Unknown
11:56 AM 50.0 °F - 30.0 °F 46% 29.87 in - North 9.2 mph - N/A   Clear
12:56 PM 52.0 °F - 30.9 °F 45% 29.85 in - North 5.8 mph - N/A   Clear
1:56 PM 51.1 °F - 32.0 °F 48% 29.82 in 10.0 mi Variable 3.5 mph - N/A   Partly Cloudy
2:56 PM 50.0 °F - 33.1 °F 52% 29.82 in 10.0 mi East 9.2 mph - N/A   Overcast
3:56 PM 51.1 °F - 34.0 °F 52% 29.82 in 10.0 mi East 6.9 mph - N/A   Overcast
4:56 PM 50.0 °F - 35.1 °F 57% 29.83 in 10.0 mi ESE 8.1 mph - N/A   Overcast
5:56 PM 48.9 °F - 36.0 °F 61% 29.85 in 10.0 mi ESE 4.6 mph - N/A   Overcast
6:56 PM 48.9 °F - 37.9 °F 66% 29.86 in 10.0 mi Calm Calm - N/A   Overcast
7:56 PM 48.9 °F - 35.1 °F 59% 29.88 in 10.0 mi North 8.1 mph - N/A   Overcast
8:56 PM 48.9 °F - 32.0 °F 52% 29.90 in 10.0 mi NNW 10.4 mph - N/A   Overcast
9:56 PM 48.0 °F - 33.1 °F 56% 29.91 in 10.0 mi NW 8.1 mph - N/A   Overcast
10:56 PM 46.9 °F - 33.1 °F 59% 29.91 in 10.0 mi NW 8.1 mph - N/A   Overcast
11:56 PM 46.9 °F - 30.9 °F 54% 29.91 in 10.0 mi NW 8.1 mph - N/A   Overcast